| time (UTC) | temp F | wind direction | speed knots | gust knots | rain 1hr in | rain 24hr in | rain mn in | humidity % | barometer mb |
| 20260831204002 | 103 | 202 | 3.5 | 7.8 | 0.00 | 0.00 | 0.00 | 36 | 1013.4 |
| 20260831203501 | 103 | 16 | 1.7 | 7.8 | 0.00 | 0.00 | 0.00 | 37 | 1013.5 |
| 20260831203102 | 103 | 49 | 2.6 | 7.8 | 0.00 | 0.00 | 0.00 | 36 | 1013.8 |
| 20260831203001 | 103 | 224 | 3.5 | 7.8 | 0.00 | 0.00 | 0.00 | 37 | 1013.7 |
| 20260831202501 | 103 | 243 | 5.2 | 7.8 | 0.00 | 0.00 | 0.00 | 37 | 1013.6 |
| 20260831202001 | 103 | 12 | 2.6 | 7.8 | 0.00 | 0.00 | 0.00 | 36 | 1013.7 |
| 20260831201952 | 104 | 280 | 3.5 | 7.0 | 0.00 | 0.00 | 0.00 | 38 | 1013.7 |
| 20260831201608 | 103 | 309 | 2.6 | 7.8 | 0.00 | 0.00 | 0.00 | 39 | 1013.9 |
| 20260831201000 | 103 | 184 | 2.6 | 8.7 | 0.00 | 0.00 | 0.00 | 39 | 1013.8 |
| 20260831200501 | 103 | 103 | 3.5 | 8.7 | 0.00 | 0.00 | 0.00 | 38 | 1013.8 |
| 20260831200221 | 103 | 183 | 2.6 | 7.0 | 0.00 | 0.00 | 0.00 | 39 | 1013.9 |
| 20260831200105 | 102 | 258 | 1.7 | 7.8 | 0.00 | 0.00 | 0.00 | 38 | 1014.1 |
| 20260831195502 | 103 | 235 | 3.5 | 7.0 | 0.00 | 0.00 | 0.00 | 38 | 1013.9 |
| 20260831195229 | 103 | 108 | 2.6 | 7.0 | 0.00 | 0.00 | 0.00 | 38 | 1013.9 |
| 20260831194723 | 104 | 90 | 1.7 | 11.3 | 0.00 | 0.00 | 0.00 | 36 | 1014.1 |
| 20260831194635 | 103 | 277 | 1.7 | 11.3 | 0.00 | 0.00 | 0.00 | 35 | 1014.3 |
| 20260831194003 | 103 | 316 | 4.3 | 11.3 | 0.00 | 0.00 | 0.00 | 38 | 1014.1 |
| 20260831193515 | 103 | 23 | 1.7 | 8.7 | 0.00 | 0.00 | 0.00 | 37 | 1014.2 |
| 20260831193102 | 102 | 221 | 3.5 | 7.8 | 0.00 | 0.00 | 0.00 | 37 | 1014.4 |
| 20260831193002 | 103 | 309 | 3.5 | 8.7 | 0.00 | 0.00 | 0.00 | 37 | 1014.3 |
| 20260831192502 | 102 | 226 | 3.5 | 6.1 | 0.00 | 0.00 | 0.00 | 37 | 1014.3 |
| 20260831192002 | 102 | 298 | 2.6 | 12.2 | 0.00 | 0.00 | 0.00 | 37 | 1014.5 |
| 20260831191726 | 102 | 1 | 4.3 | 12.2 | 0.00 | 0.00 | 0.00 | 37 | 1014.5 |
| 20260831191602 | 101 | 269 | 4.3 | 11.3 | 0.00 | 0.00 | 0.00 | 37 | 1014.6 |
| 20260831191002 | 102 | 346 | 3.5 | 9.6 | 0.00 | 0.00 | 0.00 | 38 | 1014.5 |
| 20260831190722 | 102 | 29 | 2.6 | 13.9 | 0.00 | 0.00 | 0.00 | 39 | 1014.7 |
| 20260831190113 | 101 | 130 | 2.6 | 13.0 | 0.00 | 0.00 | 0.00 | 38 | 1015.0 |
| 20260831190002 | 102 | 209 | 2.6 | 13.9 | 0.00 | 0.00 | 0.00 | 39 | 1014.7 |
| 20260831185502 | 102 | 290 | 3.5 | 7.8 | 0.00 | 0.00 | 0.00 | 38 | 1014.9 |
| 20260831185003 | 101 | 113 | 0.9 | 7.8 | 0.00 | 0.00 | 0.00 | 41 | 1014.8 |
| 20260831184631 | 100 | 226 | 2.6 | 7.0 | 0.00 | 0.00 | 0.00 | 41 | 1015.1 |
| 20260831184502 | 101 | 157 | 3.5 | 7.8 | 0.00 | 0.00 | 0.00 | 41 | 1014.9 |
| 20260831184228 | 102 | 95 | 1.7 | 7.8 | 0.00 | 0.00 | 0.00 | 42 | 1015.0 |
| 20260831183500 | 100 | 207 | 2.6 | 7.8 | 0.00 | 0.00 | 0.00 | 43 | 1015.1 |
| 20260831183108 | 100 | 20 | 2.6 | 7.8 | 0.00 | 0.00 | 0.00 | 43 | 1015.3 |
| 20260831183001 | 100 | 224 | 2.6 | 7.8 | 0.00 | 0.00 | 0.00 | 43 | 1015.1 |
| 20260831182501 | 100 | 169 | 3.5 | 7.8 | 0.00 | 0.00 | 0.00 | 41 | 1015.2 |
| 20260831182001 | 100 | 81 | 3.5 | 9.6 | 0.00 | 0.00 | 0.00 | 43 | 1015.3 |
| 20260831181559 | 99 | 285 | 3.5 | 9.6 | 0.00 | 0.00 | 0.00 | 42 | 1015.5 |
| 20260831181501 | 100 | 344 | 3.5 | 9.6 | 0.00 | 0.00 | 0.00 | 42 | 1015.2 |
| 20260831181001 | 100 | 148 | 2.6 | 11.3 | 0.00 | 0.00 | 0.00 | 43 | 1015.5 |
| 20260831180501 | 99 | 91 | 3.5 | 11.3 | 0.00 | 0.00 | 0.00 | 44 | 1015.5 |
| 20260831180054 | 99 | 265 | 2.6 | 7.0 | 0.00 | 0.00 | 0.00 | 45 | 1015.8 |
| 20260831180001 | 99 | 269 | 3.5 | 7.8 | 0.00 | 0.00 | 0.00 | 45 | 1015.6 |
| 20260831175502 | 99 | 1 | 3.5 | 7.0 | 0.00 | 0.00 | 0.00 | 45 | 1015.6 |
| 20260831175003 | 99 | 339 | 4.3 | 7.8 | 0.00 | 0.00 | 0.00 | 47 | 1015.7 |
| 20260831174612 | 98 | 13 | 1.7 | 9.6 | 0.00 | 0.00 | 0.00 | 47 | 1015.9 |
| 20260831174502 | 98 | 260 | 1.7 | 7.8 | 0.00 | 0.00 | 0.00 | 47 | 1015.7 |
| 20260831174220 | 98 | 176 | 3.5 | 7.8 | 0.00 | 0.00 | 0.00 | 48 | 1015.8 |
| 20260831173457 | 98 | 97 | 2.6 | 6.1 | 0.00 | 0.00 | 0.00 | 47 | 1016.0 |
| 20260831173211 | 98 | 153 | 2.6 | 7.0 | 0.00 | 0.00 | 0.00 | 48 | 1016.0 |
| 20260831173107 | 97 | 283 | 2.6 | 7.0 | 0.00 | 0.00 | 0.00 | 47 | 1016.2 |
| 20260831172447 | 97 | 30 | 3.5 | 7.0 | 0.00 | 0.00 | 0.00 | 50 | 1016.1 |
| 20260831171943 | 97 | 101 | 2.6 | 10.4 | 0.00 | 0.00 | 0.00 | 50 | 1016.1 |
| 20260831171555 | 96 | 277 | 3.5 | 9.6 | 0.00 | 0.00 | 0.00 | 50 | 1016.3 |
| 20260831171439 | 96 | 242 | 4.3 | 10.4 | 0.00 | 0.00 | 0.00 | 50 | 1016.2 |
| 20260831171155 | 96 | 150 | 3.5 | 7.8 | 0.00 | 0.00 | 0.00 | 50 | 1016.2 |
| 20260831170431 | 96 | 218 | 1.7 | 7.0 | 0.00 | 0.00 | 0.00 | 52 | 1016.1 |
| 20260831170152 | 96 | 258 | 3.5 | 7.8 | 0.00 | 0.00 | 0.00 | 52 | 1016.2 |
| 20260831170058 | 95 | 55 | 2.6 | 7.0 | 0.00 | 0.00 | 0.00 | 52 | 1016.5 |
| 20260831165431 | 96 | 162 | 3.5 | 7.8 | 0.00 | 0.00 | 0.00 | 52 | 1016.2 |
| 20260831164931 | 95 | 251 | 3.5 | 7.0 | 0.00 | 0.00 | 0.00 | 54 | 1016.2 |
| 20260831164606 | 95 | 121 | 1.7 | 7.0 | 0.00 | 0.00 | 0.00 | 54 | 1016.4 |
| 20260831164430 | 95 | 58 | 2.6 | 7.8 | 0.00 | 0.00 | 0.00 | 54 | 1016.1 |
| 20260831163930 | 94 | 65 | 3.5 | 7.8 | 0.00 | 0.00 | 0.00 | 56 | 1016.2 |
| 20260831163650 | 94 | 211 | 1.7 | 7.8 | 0.00 | 0.00 | 0.00 | 57 | 1016.3 |
| 20260831163055 | 93 | 234 | 2.6 | 8.7 | 0.00 | 0.00 | 0.00 | 55 | 1016.4 |
| 20260831162928 | 94 | 154 | 2.6 | 7.8 | 0.00 | 0.00 | 0.00 | 56 | 1016.2 |
| 20260831162423 | 94 | 288 | 2.6 | 6.1 | 0.00 | 0.00 | 0.00 | 57 | 1016.3 |
| 20260831161919 | 94 | 300 | 3.5 | 8.7 | 0.00 | 0.00 | 0.00 | 58 | 1016.2 |
| 20260831161607 | 93 | 209 | 1.7 | 8.7 | 0.00 | 0.00 | 0.00 | 57 | 1016.5 |
| 20260831161415 | 93 | 266 | 2.6 | 8.7 | 0.00 | 0.00 | 0.00 | 57 | 1016.2 |
| 20260831160911 | 93 | 39 | 2.6 | 7.8 | 0.00 | 0.00 | 0.00 | 59 | 1016.3 |
| 20260831160410 | 92 | 72 | 2.6 | 7.8 | 0.00 | 0.00 | 0.00 | 60 | 1016.4 |
| 20260831160109 | 92 | 231 | 1.7 | 8.7 | 0.00 | 0.00 | 0.00 | 60 | 1016.7 |
| 20260831155906 | 92 | 245 | 2.6 | 7.0 | 0.00 | 0.00 | 0.00 | 62 | 1016.5 |
| 20260831155406 | 92 | 176 | 2.6 | 6.1 | 0.00 | 0.00 | 0.00 | 62 | 1016.4 |
| 20260831154906 | 91 | 230 | 2.6 | 7.8 | 0.00 | 0.00 | 0.00 | 63 | 1016.4 |
| 20260831154621 | 90 | 37 | 2.6 | 7.8 | 0.00 | 0.00 | 0.00 | 64 | 1016.7 |
| 20260831154408 | 90 | 75 | 3.5 | 7.8 | 0.00 | 0.00 | 0.00 | 65 | 1016.5 |
| 20260831153908 | 90 | 169 | 2.6 | 7.8 | 0.00 | 0.00 | 0.00 | 65 | 1016.4 |
| 20260831153359 | 90 | 104 | 3.5 | 8.7 | 0.00 | 0.00 | 0.00 | 65 | 1016.4 |
| 20260831153105 | 89 | 136 | 2.6 | 9.6 | 0.00 | 0.00 | 0.00 | 66 | 1016.6 |
| 20260831152855 | 89 | 341 | 2.6 | 8.7 | 0.00 | 0.00 | 0.00 | 66 | 1016.3 |
| 20260831152611 | 89 | 25 | 1.7 | 7.0 | 0.00 | 0.00 | 0.00 | 69 | 1016.3 |
| 20260831152115 | 88 | 53 | 4.3 | 9.6 | 0.00 | 0.00 | 0.00 | 69 | 1016.4 |
| 20260831151607 | 88 | 226 | 3.5 | 8.7 | 0.00 | 0.00 | 0.00 | 69 | 1016.6 |
| 20260831151340 | 88 | 186 | 3.5 | 9.6 | 0.00 | 0.00 | 0.00 | 70 | 1016.4 |
| 20260831151112 | 88 | 11 | 3.5 | 8.7 | 0.00 | 0.00 | 0.00 | 71 | 1016.4 |
| 20260831150333 | 87 | 23 | 2.6 | 8.7 | 0.00 | 0.00 | 0.00 | 72 | 1016.4 |
| 20260831150058 | 87 | 274 | 2.6 | 9.6 | 0.00 | 0.00 | 0.00 | 72 | 1016.5 |
| 20260831145831 | 87 | 297 | 2.6 | 9.6 | 0.00 | 0.00 | 0.00 | 73 | 1016.4 |
| 20260831145331 | 87 | 240 | 4.3 | 9.6 | 0.00 | 0.00 | 0.00 | 73 | 1016.4 |
| 20260831144830 | 86 | 169 | 2.6 | 7.0 | 0.00 | 0.00 | 0.00 | 75 | 1016.3 |
| 20260831144609 | 86 | 273 | 2.6 | 7.8 | 0.00 | 0.00 | 0.00 | 73 | 1016.5 |
| 20260831144331 | 87 | 139 | 2.6 | 7.0 | 0.00 | 0.00 | 0.00 | 74 | 1016.2 |
| 20260831143828 | 86 | 135 | 3.5 | 7.8 | 0.00 | 0.00 | 0.00 | 76 | 1016.3 |
| 20260831143554 | 86 | 143 | 3.5 | 7.8 | 0.00 | 0.00 | 0.00 | 76 | 1016.3 |
| 20260831143053 | 85 | 211 | 1.7 | 7.0 | 0.00 | 0.00 | 0.00 | 76 | 1016.6 |
| 20260831142828 | 86 | 37 | 2.6 | 7.0 | 0.00 | 0.00 | 0.00 | 76 | 1016.3 |
| 20260831142329 | 85 | 216 | 2.6 | 8.7 | 0.00 | 0.00 | 0.00 | 78 | 1016.4 |
| 20260831141829 | 85 | 184 | 2.6 | 8.7 | 0.00 | 0.00 | 0.00 | 78 | 1016.2 |
| 20260831141605 | 84 | 7 | 2.6 | 7.0 | 0.00 | 0.00 | 0.00 | 78 | 1016.6 |
| 20260831141329 | 85 | 170 | 2.6 | 7.8 | 0.00 | 0.00 | 0.00 | 79 | 1016.3 |
| 20260831140828 | 85 | 250 | 1.7 | 7.8 | 0.00 | 0.00 | 0.00 | 79 | 1016.4 |
| 20260831140551 | 84 | 59 | 2.6 | 6.1 | 0.00 | 0.00 | 0.00 | 81 | 1016.3 |
| 20260831140057 | 84 | 232 | 0.9 | 5.2 | 0.00 | 0.00 | 0.00 | 81 | 1016.7 |
| 20260831135829 | 84 | 146 | 1.7 | 5.2 | 0.00 | 0.00 | 0.00 | 82 | 1016.4 |
| 20260831135554 | 84 | 13 | 2.6 | 5.2 | 0.00 | 0.00 | 0.00 | 82 | 1016.2 |
| 20260831134831 | 83 | 240 | 1.7 | 6.1 | 0.00 | 0.00 | 0.00 | 82 | 1016.2 |
| 20260831134600 | 83 | 150 | 1.7 | 6.1 | 0.00 | 0.00 | 0.00 | 82 | 1016.3 |
| 20260831134330 | 83 | 60 | 1.7 | 6.1 | 0.00 | 0.00 | 0.00 | 83 | 1016.1 |
| 20260831133830 | 83 | 99 | 1.7 | 5.2 | 0.00 | 0.00 | 0.00 | 83 | 1016.1 |
| 20260831133329 | 83 | 308 | 1.7 | 5.2 | 0.00 | 0.00 | 0.00 | 83 | 1016.0 |
| 20260831133055 | 82 | 11 | 0.9 | 4.3 | 0.00 | 0.00 | 0.00 | 83 | 1016.2 |
| 20260831132828 | 83 | 298 | 1.7 | 4.3 | 0.00 | 0.00 | 0.00 | 84 | 1016.0 |
| 20260831132330 | 83 | 66 | 2.6 | 4.3 | 0.00 | 0.00 | 0.00 | 83 | 1015.9 |
| 20260831131829 | 83 | 189 | 1.7 | 4.3 | 0.00 | 0.00 | 0.00 | 84 | 1015.9 |
| 20260831131603 | 82 | 15 | 1.7 | 4.3 | 0.00 | 0.00 | 0.00 | 83 | 1016.0 |
| 20260831131329 | 83 | 293 | 0.9 | 4.3 | 0.00 | 0.00 | 0.00 | 84 | 1015.8 |
| 20260831130829 | 82 | 274 | 1.7 | 4.3 | 0.00 | 0.00 | 0.00 | 84 | 1015.9 |
| 20260831130328 | 82 | 240 | 1.7 | 5.2 | 0.00 | 0.00 | 0.00 | 85 | 1015.9 |
| 20260831130116 | 82 | 217 | 0.9 | 4.3 | 0.00 | 0.00 | 0.00 | 85 | 1016.1 |
| 20260831125828 | 82 | 63 | 1.7 | 5.2 | 0.00 | 0.00 | 0.00 | 85 | 1015.9 |
| 20260831125331 | 82 | 51 | 0.9 | 3.5 | 0.00 | 0.00 | 0.00 | 86 | 1015.8 |
| 20260831125316 | 81 | 44 | 1.7 | 3.5 | 0.00 | 0.00 | 0.00 | 86 | 1015.9 |
| 20260831124555 | 81 | 321 | 0.9 | 3.5 | 0.00 | 0.00 | 0.00 | 86 | 1016.0 |
| 20260831124329 | 81 | 338 | 0.9 | 2.6 | 0.00 | 0.00 | 0.00 | 86 | 1015.7 |
| 20260831123829 | 81 | 120 | 0.9 | 2.6 | 0.00 | 0.00 | 0.00 | 87 | 1015.5 |
| 20260831123329 | 81 | 295 | 0.9 | 1.7 | 0.00 | 0.00 | 0.00 | 87 | 1015.6 |
| 20260831123105 | 80 | 74 | 0.0 | 3.5 | 0.00 | 0.00 | 0.00 | 86 | 1015.7 |
| 20260831122828 | 81 | 262 | 0.9 | 3.5 | 0.00 | 0.00 | 0.00 | 87 | 1015.5 |
| 20260831122554 | 81 | 86 | 1.7 | 3.5 | 0.00 | 0.00 | 0.00 | 87 | 1015.3 |
| 20260831121831 | 81 | 329 | 0.9 | 3.5 | 0.00 | 0.00 | 0.00 | 87 | 1015.4 |
| 20260831121601 | 80 | 91 | 0.9 | 2.6 | 0.00 | 0.00 | 0.00 | 86 | 1015.5 |
| 20260831121331 | 81 | 179 | 1.7 | 3.5 | 0.00 | 0.00 | 0.00 | 86 | 1015.2 |
| 20260831120831 | 81 | 231 | 1.7 | 2.6 | 0.00 | 0.00 | 0.00 | 86 | 1015.1 |
| 20260831120329 | 81 | 127 | 0.9 | 2.6 | 0.00 | 0.00 | 0.00 | 86 | 1015.1 |
| 20260831120057 | 81 | 191 | 0.9 | 2.6 | 0.00 | 0.00 | 0.00 | 86 | 1015.2 |
| 20260831115829 | 81 | 332 | 0.9 | 2.6 | 0.00 | 0.00 | 0.00 | 86 | 1015.0 |
| 20260831115329 | 81 | 216 | 0.9 | 4.3 | 0.00 | 0.00 | 0.00 | 86 | 1015.0 |
| 20260831114829 | 81 | 300 | 0.9 | 4.3 | 0.00 | 0.00 | 0.00 | 86 | 1015.0 |
| 20260831114606 | 81 | 288 | 0.9 | 2.6 | 0.00 | 0.00 | 0.00 | 85 | 1015.2 |
| 20260831114329 | 81 | 323 | 0.9 | 2.6 | 0.00 | 0.00 | 0.00 | 86 | 1015.0 |
| 20260831113828 | 81 | 262 | 0.0 | 3.5 | 0.00 | 0.00 | 0.00 | 86 | 1014.9 |
| 20260831113328 | 81 | 179 | 0.9 | 3.5 | 0.00 | 0.00 | 0.00 | 85 | 1014.9 |
| 20260831113052 | 81 | 248 | 0.9 | 3.5 | 0.00 | 0.00 | 0.00 | 85 | 1015.1 |
| 20260831112828 | 82 | 13 | 0.9 | 2.6 | 0.00 | 0.00 | 0.00 | 85 | 1015.0 |
| 20260831112329 | 82 | 20 | 0.9 | 3.5 | 0.00 | 0.00 | 0.00 | 85 | 1015.0 |
| 20260831111829 | 82 | 193 | 0.9 | 3.5 | 0.00 | 0.00 | 0.00 | 85 | 1015.1 |
| 20260831111612 | 81 | 295 | 0.0 | 3.5 | 0.00 | 0.00 | 0.00 | 85 | 1015.2 |
| 20260831111328 | 81 | 231 | 0.0 | 2.6 | 0.00 | 0.00 | 0.00 | 85 | 1015.0 |
| 20260831110829 | 82 | 169 | 0.9 | 1.7 | 0.00 | 0.00 | 0.00 | 85 | 1015.0 |
| 20260831110329 | 82 | 276 | 0.9 | 2.6 | 0.00 | 0.00 | 0.00 | 85 | 1015.0 |
| 20260831110151 | 81 | 35 | 0.0 | 3.5 | 0.00 | 0.00 | 0.00 | 85 | 1015.2 |
| 20260831105829 | 82 | 231 | 0.0 | 3.5 | 0.00 | 0.00 | 0.00 | 85 | 1015.0 |
| 20260831105329 | 82 | 236 | 0.9 | 3.5 | 0.00 | 0.00 | 0.00 | 85 | 1014.8 |
| 20260831104829 | 82 | 91 | 0.9 | 3.5 | 0.00 | 0.00 | 0.00 | 85 | 1015.0 |
| 20260831104605 | 82 | 187 | 1.7 | 4.3 | 0.00 | 0.00 | 0.00 | 85 | 1015.0 |
| 20260831104551 | 81 | 250 | 1.7 | 2.6 | 0.00 | 0.00 | 0.00 | 84 | 1015.1 |
| 20260831104052 | 82 | 145 | 0.0 | 4.3 | 0.00 | 0.00 | 0.00 | 84 | 1014.9 |
| 20260831103553 | 82 | 153 | 0.9 | 3.5 | 0.00 | 0.00 | 0.00 | 85 | 1014.8 |
| 20260831103101 | 82 | 49 | 0.9 | 4.3 | 0.00 | 0.00 | 0.00 | 84 | 1015.1 |
| 20260831102829 | 82 | 82 | 1.7 | 4.3 | 0.00 | 0.00 | 0.00 | 84 | 1014.8 |
| 20260831102325 | 82 | 230 | 0.9 | 4.3 | 0.00 | 0.00 | 0.00 | 84 | 1014.9 |
| 20260831102044 | 82 | 296 | 0.9 | 4.3 | 0.00 | 0.00 | 0.00 | 84 | 1014.9 |
| 20260831101555 | 82 | 231 | 1.7 | 4.3 | 0.00 | 0.00 | 0.00 | 84 | 1015.0 |
| 20260831101317 | 82 | 338 | 1.7 | 4.3 | 0.00 | 0.00 | 0.00 | 84 | 1014.9 |
| 20260831100812 | 82 | 65 | 1.7 | 3.5 | 0.00 | 0.00 | 0.00 | 84 | 1014.8 |
| 20260831100306 | 82 | 295 | 0.9 | 4.3 | 0.00 | 0.00 | 0.00 | 84 | 1014.9 |
| 20260831100104 | 82 | 0 | 0.9 | 4.3 | 0.00 | 0.00 | 0.00 | 83 | 1015.0 |
| 20260831095807 | 83 | 113 | 0.9 | 4.3 | 0.00 | 0.00 | 0.00 | 84 | 1014.9 |
| 20260831095305 | 83 | 176 | 0.9 | 5.2 | 0.00 | 0.00 | 0.00 | 84 | 1015.1 |
| 20260831095025 | 83 | 250 | 1.7 | 5.2 | 0.00 | 0.00 | 0.00 | 84 | 1015.0 |
| 20260831094602 | 82 | 165 | 1.7 | 4.3 | 0.00 | 0.00 | 0.00 | 83 | 1015.3 |
| 20260831094533 | 83 | 14 | 0.9 | 3.5 | 0.00 | 0.00 | 0.00 | 84 | 1015.0 |
| 20260831094023 | 83 | 355 | 1.7 | 3.5 | 0.00 | 0.00 | 0.00 | 84 | 1015.1 |
| 20260831093253 | 83 | 288 | 1.7 | 3.5 | 0.00 | 0.00 | 0.00 | 84 | 1015.1 |
| 20260831093103 | 82 | 98 | 0.9 | 7.0 | 0.00 | 0.00 | 0.00 | 84 | 1015.2 |
| 20260831092750 | 83 | 345 | 1.7 | 3.5 | 0.00 | 0.00 | 0.00 | 84 | 1015.0 |
| 20260831092246 | 83 | 341 | 0.9 | 3.5 | 0.00 | 0.00 | 0.00 | 84 | 1014.8 |
| 20260831091741 | 83 | 18 | 2.6 | 3.5 | 0.00 | 0.00 | 0.00 | 84 | 1014.9 |
| 20260831091557 | 82 | 303 | 0.9 | 3.5 | 0.00 | 0.00 | 0.00 | 83 | 1015.1 |
| 20260831091238 | 83 | 152 | 1.7 | 4.3 | 0.00 | 0.00 | 0.00 | 84 | 1015.0 |
| 20260831090957 | 83 | 41 | 0.9 | 4.3 | 0.00 | 0.00 | 0.00 | 83 | 1014.9 |
| 20260831090455 | 83 | 63 | 2.6 | 4.3 | 0.00 | 0.00 | 0.00 | 83 | 1015.0 |
| 20260831085732 | 83 | 288 | 0.9 | 5.2 | 0.00 | 0.00 | 0.00 | 83 | 1014.9 |
| 20260831085450 | 83 | 280 | 2.6 | 10.4 | 0.00 | 0.00 | 0.00 | 83 | 1014.9 |
| 20260831085433 | 83 | 171 | 1.7 | 6.1 | 0.00 | 0.00 | 0.00 | 83 | 1015.0 |
| 20260831084604 | 83 | 186 | 1.7 | 10.4 | 0.00 | 0.00 | 0.00 | 82 | 1015.1 |
| 20260831084229 | 83 | 129 | 1.7 | 10.4 | 0.00 | 0.00 | 0.00 | 83 | 1014.9 |
| 20260831083729 | 83 | 24 | 1.7 | 7.0 | 0.00 | 0.00 | 0.00 | 83 | 1015.0 |
| 20260831083229 | 83 | 149 | 2.6 | 7.0 | 0.00 | 0.00 | 0.00 | 82 | 1015.1 |
| 20260831083057 | 83 | 253 | 2.6 | 7.0 | 0.00 | 0.00 | 0.00 | 82 | 1015.3 |
| 20260831082725 | 83 | 6 | 1.7 | 7.0 | 0.00 | 0.00 | 0.00 | 82 | 1015.1 |
| 20260831082221 | 83 | 138 | 1.7 | 7.0 | 0.00 | 0.00 | 0.00 | 82 | 1015.1 |
| 20260831082002 | 84 | 275 | 0.9 | 7.8 | 0.00 | 0.00 | 0.00 | 82 | 1015.3 |
| 20260831081634 | 83 | 213 | 1.7 | 7.8 | 0.00 | 0.00 | 0.00 | 81 | 1015.3 |
| 20260831081213 | 84 | 282 | 3.5 | 7.8 | 0.00 | 0.00 | 0.00 | 82 | 1015.3 |
| 20260831080709 | 84 | 220 | 3.5 | 7.0 | 0.00 | 0.00 | 0.00 | 82 | 1015.4 |
| 20260831080204 | 84 | 85 | 2.6 | 5.2 | 0.00 | 0.00 | 0.00 | 82 | 1015.3 |
| 20260831075702 | 84 | 357 | 3.5 | 7.0 | 0.00 | 0.00 | 0.00 | 83 | 1015.2 |
| 20260831075203 | 84 | 302 | 3.5 | 7.0 | 0.00 | 0.00 | 0.00 | 83 | 1015.3 |
| 20260831074703 | 84 | 32 | 0.9 | 4.3 | 0.00 | 0.00 | 0.00 | 83 | 1015.5 |
| 20260831074602 | 83 | 250 | 1.7 | 4.3 | 0.00 | 0.00 | 0.00 | 82 | 1015.7 |
| 20260831074424 | 84 | 23 | 1.7 | 4.3 | 0.00 | 0.00 | 0.00 | 83 | 1015.6 |
| 20260831073702 | 84 | 239 | 1.7 | 4.3 | 0.00 | 0.00 | 0.00 | 83 | 1015.7 |
| 20260831073158 | 84 | 136 | 0.9 | 5.2 | 0.00 | 0.00 | 0.00 | 83 | 1015.7 |
| 20260831073156 | 83 | 197 | 0.9 | 5.2 | 0.00 | 0.00 | 0.00 | 82 | 1015.8 |
| 20260831072655 | 84 | 17 | 1.7 | 5.2 | 0.00 | 0.00 | 0.00 | 83 | 1015.7 |
| 20260831072415 | 84 | 231 | 1.7 | 4.3 | 0.00 | 0.00 | 0.00 | 83 | 1015.7 |
| 20260831071647 | 84 | 97 | 1.7 | 6.1 | 0.00 | 0.00 | 0.00 | 83 | 1015.7 |
| 20260831071601 | 83 | 290 | 1.7 | 6.1 | 0.00 | 0.00 | 0.00 | 82 | 1015.9 |
| 20260831071142 | 84 | 108 | 1.7 | 6.1 | 0.00 | 0.00 | 0.00 | 83 | 1015.8 |
| 20260831070638 | 84 | 130 | 1.7 | 4.3 | 0.00 | 0.00 | 0.00 | 83 | 1015.8 |
| 20260831070133 | 84 | 87 | 1.7 | 4.3 | 0.00 | 0.00 | 0.00 | 82 | 1015.9 |
| 20260831070108 | 83 | 120 | 0.9 | 7.0 | 0.00 | 0.00 | 0.00 | 82 | 1016.1 |
| 20260831065837 | 84 | 207 | 3.5 | 6.1 | 0.00 | 0.00 | 0.00 | 82 | 1016.0 |
| 20260831065823 | 84 | 39 | 1.7 | 6.1 | 0.00 | 0.00 | 0.00 | 82 | 1015.9 |
| 20260831064854 | 84 | 214 | 1.7 | 6.1 | 0.00 | 0.00 | 0.00 | 82 | 1016.0 |
| 20260831064607 | 84 | 104 | 1.7 | 7.0 | 0.00 | 0.00 | 0.00 | 82 | 1016.2 |
| 20260831064129 | 84 | 257 | 1.7 | 7.0 | 0.00 | 0.00 | 0.00 | 82 | 1016.1 |
| 20260831063628 | 84 | 51 | 2.6 | 7.0 | 0.00 | 0.00 | 0.00 | 82 | 1016.0 |
| 20260831063128 | 84 | 160 | 0.0 | 5.2 | 0.00 | 0.00 | 0.00 | 82 | 1016.0 |
| 20260831063056 | 84 | 0 | 0.9 | 6.1 | 0.00 | 0.00 | 0.00 | 81 | 1016.3 |
| 20260831062858 | 84 | 51 | 2.6 | 5.2 | 0.00 | 0.00 | 0.00 | 81 | 1015.9 |
| 20260831062128 | 84 | 51 | 1.7 | 5.2 | 0.00 | 0.00 | 0.00 | 81 | 1015.9 |
| 20260831061629 | 84 | 216 | 1.7 | 6.1 | 0.00 | 0.00 | 0.00 | 81 | 1015.9 |
| 20260831061554 | 84 | 198 | 1.7 | 7.0 | 0.00 | 0.00 | 0.00 | 81 | 1016.1 |
| 20260831061129 | 84 | 195 | 1.7 | 6.1 | 0.00 | 0.00 | 0.00 | 81 | 1016.0 |
| 20260831060630 | 85 | 345 | 1.7 | 5.2 | 0.00 | 0.00 | 0.00 | 81 | 1016.0 |
| 20260831060129 | 85 | 321 | 1.7 | 5.2 | 0.00 | 0.00 | 0.00 | 80 | 1016.1 |
| 20260831060115 | 84 | 257 | 0.9 | 7.0 | 0.00 | 0.00 | 0.00 | 80 | 1016.3 |
| 20260831055629 | 85 | 39 | 1.7 | 5.2 | 0.00 | 0.00 | 0.00 | 80 | 1016.1 |
| 20260831055129 | 85 | 276 | 2.6 | 9.6 | 0.00 | 0.00 | 0.00 | 80 | 1016.1 |
| 20260831054631 | 85 | 268 | 1.7 | 9.6 | 0.00 | 0.00 | 0.00 | 80 | 1016.1 |
| 20260831054612 | 84 | 77 | 1.7 | 9.6 | 0.00 | 0.00 | 0.00 | 79 | 1016.4 |
| 20260831054131 | 85 | 0 | 2.6 | 7.8 | 0.00 | 0.00 | 0.00 | 80 | 1016.1 |
| 20260831053632 | 85 | 330 | 3.5 | 7.0 | 0.00 | 0.00 | 0.00 | 80 | 1016.0 |
| 20260831053131 | 85 | 200 | 3.5 | 7.8 | 0.00 | 0.00 | 0.00 | 80 | 1016.1 |
| 20260831053104 | 85 | 175 | 2.6 | 7.0 | 0.00 | 0.00 | 0.00 | 79 | 1016.3 |
| 20260831052629 | 85 | 316 | 3.5 | 7.8 | 0.00 | 0.00 | 0.00 | 80 | 1016.0 |
| 20260831052128 | 85 | 49 | 1.7 | 5.2 | 0.00 | 0.00 | 0.00 | 80 | 1016.0 |
| 20260831052117 | 85 | 25 | 2.6 | 6.1 | 0.00 | 0.00 | 0.00 | 80 | 1015.9 |
| 20260831051559 | 85 | 136 | 1.7 | 7.0 | 0.00 | 0.00 | 0.00 | 79 | 1016.2 |
| 20260831051129 | 85 | 316 | 2.6 | 7.8 | 0.00 | 0.00 | 0.00 | 80 | 1016.0 |
| 20260831050628 | 85 | 141 | 3.5 | 7.8 | 0.00 | 0.00 | 0.00 | 80 | 1016.0 |
| 20260831050141 | 85 | 285 | 1.7 | 7.0 | 0.00 | 0.00 | 0.00 | 79 | 1016.3 |
| 20260831050128 | 85 | 114 | 2.6 | 6.1 | 0.00 | 0.00 | 0.00 | 80 | 1016.0 |
| 20260831045628 | 85 | 326 | 2.6 | 6.1 | 0.00 | 0.00 | 0.00 | 79 | 1016.1 |
| 20260831045612 | 85 | 321 | 2.6 | 8.7 | 0.00 | 0.00 | 0.00 | 79 | 1016.1 |
| 20260831044631 | 85 | 237 | 3.5 | 8.7 | 0.00 | 0.00 | 0.00 | 79 | 1016.1 |
| 20260831044605 | 85 | 235 | 2.6 | 7.0 | 0.00 | 0.00 | 0.00 | 78 | 1016.2 |
| 20260831044131 | 85 | 139 | 3.5 | 7.0 | 0.00 | 0.00 | 0.00 | 79 | 1016.1 |
| 20260831043855 | 85 | 69 | 3.5 | 7.0 | 0.00 | 0.00 | 0.00 | 78 | 1016.1 |
| 20260831043130 | 85 | 265 | 3.5 | 7.0 | 0.00 | 0.00 | 0.00 | 78 | 1016.2 |
| 20260831043116 | 85 | 17 | 3.5 | 7.0 | 0.00 | 0.00 | 0.00 | 78 | 1016.3 |
| 20260831043108 | 85 | 91 | 2.6 | 7.0 | 0.00 | 0.00 | 0.00 | 77 | 1016.3 |
| 20260831042129 | 85 | 326 | 3.5 | 7.0 | 0.00 | 0.00 | 0.00 | 77 | 1016.1 |
| 20260831041631 | 85 | 215 | 2.6 | 7.0 | 0.00 | 0.00 | 0.00 | 77 | 1016.2 |
| 20260831041608 | 85 | 45 | 1.7 | 7.0 | 0.00 | 0.00 | 0.00 | 76 | 1016.2 |
| 20260831041131 | 85 | 96 | 3.5 | 7.8 | 0.00 | 0.00 | 0.00 | 76 | 1016.0 |
| 20260831040644 | 86 | 121 | 2.6 | 7.8 | 0.00 | 0.00 | 0.00 | 76 | 1015.8 |
| 20260831040126 | 86 | 162 | 3.5 | 6.1 | 0.00 | 0.00 | 0.00 | 76 | 1015.8 |
| 20260831040107 | 85 | 350 | 2.6 | 7.8 | 0.00 | 0.00 | 0.00 | 75 | 1016.0 |
| 20260831035624 | 86 | 319 | 1.7 | 6.1 | 0.00 | 0.00 | 0.00 | 76 | 1015.7 |
| 20260831035125 | 86 | 134 | 4.3 | 7.0 | 0.00 | 0.00 | 0.00 | 75 | 1015.6 |
| 20260831034620 | 86 | 6 | 3.5 | 7.8 | 0.00 | 0.00 | 0.00 | 75 | 1015.6 |
| 20260831034600 | 86 | 283 | 3.5 | 7.8 | 0.00 | 0.00 | 0.00 | 74 | 1015.7 |
| 20260831034340 | 86 | 207 | 1.7 | 7.8 | 0.00 | 0.00 | 0.00 | 74 | 1015.4 |
| 20260831033837 | 86 | 167 | 2.6 | 8.7 | 0.00 | 0.00 | 0.00 | 74 | 1015.4 |
| 20260831033343 | 86 | 182 | 3.5 | 8.7 | 0.00 | 0.00 | 0.00 | 73 | 1015.3 |
| 20260831033052 | 86 | 207 | 3.5 | 7.8 | 0.00 | 0.00 | 0.00 | 73 | 1015.5 |
| 20260831032608 | 87 | 194 | 2.6 | 7.0 | 0.00 | 0.00 | 0.00 | 73 | 1015.2 |
| 20260831032104 | 87 | 53 | 4.3 | 7.8 | 0.00 | 0.00 | 0.00 | 72 | 1015.2 |
| 20260831031604 | 87 | 319 | 3.5 | 7.8 | 0.00 | 0.00 | 0.00 | 72 | 1015.2 |
| 20260831031601 | 86 | 235 | 3.5 | 9.6 | 0.00 | 0.00 | 0.00 | 71 | 1015.4 |
| 20260831031104 | 87 | 244 | 3.5 | 9.6 | 0.00 | 0.00 | 0.00 | 72 | 1015.2 |
| 20260831030603 | 87 | 126 | 5.2 | 9.6 | 0.00 | 0.00 | 0.00 | 71 | 1015.0 |
| 20260831030106 | 87 | 233 | 3.5 | 9.6 | 0.00 | 0.00 | 0.00 | 70 | 1015.1 |
| 20260831025604 | 87 | 333 | 3.5 | 7.8 | 0.00 | 0.00 | 0.00 | 70 | 1014.7 |
| 20260831025101 | 87 | 113 | 4.3 | 7.8 | 0.00 | 0.00 | 0.00 | 70 | 1014.6 |
| 20260831024603 | 88 | 27 | 3.5 | 11.3 | 0.00 | 0.00 | 0.00 | 69 | 1014.6 |
| 20260831024101 | 88 | 27 | 4.3 | 11.3 | 0.00 | 0.00 | 0.00 | 68 | 1014.5 |
| 20260831023602 | 88 | 322 | 3.5 | 7.0 | 0.00 | 0.00 | 0.00 | 68 | 1014.3 |
| 20260831023103 | 88 | 256 | 3.5 | 7.8 | 0.00 | 0.00 | 0.00 | 67 | 1014.3 |
| 20260831023100 | 88 | 360 | 2.6 | 8.7 | 0.00 | 0.00 | 0.00 | 67 | 1014.5 |
| 20260831022602 | 88 | 96 | 3.5 | 8.7 | 0.00 | 0.00 | 0.00 | 67 | 1014.2 |
| 20260831022101 | 89 | 153 | 4.3 | 8.7 | 0.00 | 0.00 | 0.00 | 66 | 1014.3 |
| 20260831021601 | 89 | 47 | 1.7 | 8.7 | 0.00 | 0.00 | 0.00 | 66 | 1014.2 |
| 20260831021558 | 88 | 148 | 1.7 | 8.7 | 0.00 | 0.00 | 0.00 | 66 | 1014.4 |
| 20260831021334 | 89 | 109 | 5.2 | 8.7 | 0.00 | 0.00 | 0.00 | 66 | 1014.2 |
| 20260831020838 | 89 | 74 | 4.3 | 9.6 | 0.00 | 0.00 | 0.00 | 66 | 1014.1 |
| 20260831020116 | 89 | 219 | 3.5 | 10.4 | 0.00 | 0.00 | 0.00 | 65 | 1013.9 |
| 20260831020108 | 89 | 330 | 3.5 | 10.4 | 0.00 | 0.00 | 0.00 | 64 | 1014.1 |
| 20260831015603 | 89 | 274 | 5.2 | 10.4 | 0.00 | 0.00 | 0.00 | 64 | 1013.8 |
| 20260831015103 | 90 | 318 | 4.3 | 7.0 | 0.00 | 0.00 | 0.00 | 64 | 1013.8 |
| 20260831014604 | 90 | 260 | 2.6 | 7.0 | 0.00 | 0.00 | 0.00 | 63 | 1014.0 |
| 20260831014602 | 90 | 212 | 2.6 | 7.0 | 0.00 | 0.00 | 0.00 | 64 | 1013.8 |
| 20260831014103 | 90 | 220 | 2.6 | 8.7 | 0.00 | 0.00 | 0.00 | 63 | 1013.8 |
| 20260831013827 | 91 | 335 | 3.5 | 8.7 | 0.00 | 0.00 | 0.00 | 63 | 1013.7 |
| 20260831013556 | 91 | 257 | 4.3 | 8.7 | 0.00 | 0.00 | 0.00 | 62 | 1013.7 |
| 20260831013100 | 90 | 321 | 3.5 | 8.7 | 0.00 | 0.00 | 0.00 | 62 | 1013.8 |
| 20260831012603 | 91 | 236 | 4.3 | 8.7 | 0.00 | 0.00 | 0.00 | 62 | 1013.7 |
| 20260831012102 | 91 | 323 | 5.2 | 8.7 | 0.00 | 0.00 | 0.00 | 61 | 1013.7 |
| 20260831012049 | 92 | 355 | 5.2 | 10.4 | 0.00 | 0.00 | 0.00 | 60 | 1013.7 |
| 20260831011604 | 91 | 169 | 4.3 | 9.6 | 0.00 | 0.00 | 0.00 | 60 | 1013.9 |
| 20260831011102 | 92 | 186 | 5.2 | 10.4 | 0.00 | 0.00 | 0.00 | 59 | 1013.6 |
| 20260831010602 | 92 | 60 | 5.2 | 10.4 | 0.00 | 0.00 | 0.00 | 58 | 1013.7 |
| 20260831010104 | 92 | 355 | 5.2 | 9.6 | 0.00 | 0.00 | 0.00 | 57 | 1013.7 |
| 20260831005602 | 93 | 114 | 6.1 | 9.6 | 0.00 | 0.00 | 0.00 | 57 | 1013.5 |
| 20260831005102 | 93 | 133 | 4.3 | 8.7 | 0.00 | 0.00 | 0.00 | 57 | 1013.3 |
| 20260831004616 | 93 | 340 | 4.3 | 10.4 | 0.00 | 0.00 | 0.00 | 56 | 1013.3 |
| 20260831004601 | 93 | 250 | 5.2 | 10.4 | 0.00 | 0.00 | 0.00 | 57 | 1013.1 |
| 20260831004104 | 94 | 123 | 3.5 | 10.4 | 0.00 | 0.00 | 0.00 | 56 | 1013.0 |
| 20260831003604 | 94 | 111 | 3.5 | 10.4 | 0.00 | 0.00 | 0.00 | 55 | 1012.8 |
| 20260831003107 | 94 | 288 | 4.3 | 9.6 | 0.00 | 0.00 | 0.00 | 53 | 1013.1 |
| 20260831003103 | 94 | 255 | 4.3 | 10.4 | 0.00 | 0.00 | 0.00 | 54 | 1012.9 |
| 20260831002603 | 95 | 200 | 5.2 | 9.6 | 0.00 | 0.00 | 0.00 | 53 | 1012.8 |
| 20260831002102 | 95 | 256 | 4.3 | 8.7 | 0.00 | 0.00 | 0.00 | 53 | 1012.8 |
| 20260831001604 | 95 | 2 | 4.3 | 9.6 | 0.00 | 0.00 | 0.00 | 51 | 1012.9 |
| 20260831001601 | 95 | 210 | 5.2 | 9.6 | 0.00 | 0.00 | 0.00 | 52 | 1012.7 |
| 20260831001340 | 96 | 310 | 4.3 | 9.6 | 0.00 | 0.00 | 0.00 | 51 | 1012.6 |
| 20260831000602 | 96 | 311 | 4.3 | 8.7 | 0.00 | 0.00 | 0.00 | 50 | 1012.5 |
| 20260831000104 | 96 | 56 | 3.5 | 11.3 | 0.00 | 0.00 | 0.00 | 50 | 1012.8 |
| 20260830235602 | 97 | 176 | 5.2 | 11.3 | 0.00 | 0.00 | 0.00 | 50 | 1012.5 |
| 20260830235337 | 97 | 160 | 4.3 | 9.6 | 0.00 | 0.00 | 0.00 | 49 | 1012.6 |
| 20260830234602 | 98 | 201 | 3.5 | 9.6 | 0.00 | 0.00 | 0.00 | 48 | 1012.5 |
| 20260830234103 | 98 | 245 | 1.7 | 9.6 | 0.00 | 0.00 | 0.00 | 47 | 1012.5 |
| 20260830233602 | 98 | 214 | 3.5 | 9.6 | 0.00 | 0.00 | 0.00 | 48 | 1012.4 |
| 20260830233328 | 98 | 264 | 5.2 | 9.6 | 0.00 | 0.00 | 0.00 | 47 | 1012.4 |
| 20260830233108 | 97 | 190 | 5.2 | 11.3 | 0.00 | 0.00 | 0.00 | 47 | 1012.5 |
| 20260830232602 | 98 | 26 | 4.3 | 9.6 | 0.00 | 0.00 | 0.00 | 47 | 1012.3 |
| 20260830232326 | 99 | 184 | 3.5 | 9.6 | 0.00 | 0.00 | 0.00 | 47 | 1012.3 |
| 20260830231603 | 99 | 152 | 2.6 | 9.6 | 0.00 | 0.00 | 0.00 | 45 | 1012.5 |
| 20260830231601 | 100 | 58 | 3.5 | 9.6 | 0.00 | 0.00 | 0.00 | 46 | 1012.4 |
| 20260830231103 | 100 | 32 | 3.5 | 7.8 | 0.00 | 0.00 | 0.00 | 46 | 1012.3 |
| 20260830230604 | 100 | 124 | 2.6 | 8.7 | 0.00 | 0.00 | 0.00 | 46 | 1012.4 |
| 20260830230116 | 100 | 64 | 3.5 | 8.7 | 0.00 | 0.00 | 0.00 | 47 | 1012.3 |
| 20260830230100 | 99 | 304 | 2.6 | 8.7 | 0.00 | 0.00 | 0.00 | 46 | 1012.3 |
| 20260830225604 | 100 | 330 | 3.5 | 8.7 | 0.00 | 0.00 | 0.00 | 46 | 1012.2 |
| 20260830225103 | 100 | 297 | 4.3 | 8.7 | 0.00 | 0.00 | 0.00 | 46 | 1012.2 |
| 20260830224606 | 100 | 288 | 3.5 | 8.7 | 0.00 | 0.00 | 0.00 | 44 | 1012.4 |
| 20260830224603 | 100 | 288 | 4.3 | 7.8 | 0.00 | 0.00 | 0.00 | 44 | 1012.1 |
| 20260830224104 | 101 | 37 | 4.3 | 7.8 | 0.00 | 0.00 | 0.00 | 45 | 1012.1 |
| 20260830223604 | 101 | 130 | 3.5 | 10.4 | 0.00 | 0.00 | 0.00 | 45 | 1012.0 |
| 20260830223104 | 101 | 258 | 5.2 | 11.3 | 0.00 | 0.00 | 0.00 | 43 | 1012.1 |
| 20260830223055 | 100 | 252 | 5.2 | 11.3 | 0.00 | 0.00 | 0.00 | 43 | 1012.3 |
| 20260830222603 | 101 | 191 | 4.3 | 11.3 | 0.00 | 0.00 | 0.00 | 42 | 1011.9 |
| 20260830222326 | 101 | 250 | 5.2 | 9.6 | 0.00 | 0.00 | 0.00 | 42 | 1011.9 |
| 20260830221603 | 102 | 198 | 4.3 | 8.7 | 0.00 | 0.00 | 0.00 | 41 | 1012.2 |
| 20260830221104 | 102 | 39 | 4.3 | 8.7 | 0.00 | 0.00 | 0.00 | 42 | 1012.0 |
| 20260830220604 | 103 | 56 | 3.5 | 7.0 | 0.00 | 0.00 | 0.00 | 41 | 1011.9 |
| 20260830220328 | 103 | 19 | 3.5 | 7.0 | 0.00 | 0.00 | 0.00 | 40 | 1011.9 |
| 20260830220105 | 102 | 173 | 2.6 | 6.1 | 0.00 | 0.00 | 0.00 | 39 | 1012.1 |
| 20260830215606 | 103 | 148 | 1.7 | 7.8 | 0.00 | 0.00 | 0.00 | 40 | 1012.1 |
| 20260830215104 | 102 | 108 | 3.5 | 7.8 | 0.00 | 0.00 | 0.00 | 41 | 1011.9 |
| 20260830214603 | 102 | 41 | 4.3 | 7.0 | 0.00 | 0.00 | 0.00 | 41 | 1012.0 |
| 20260830214553 | 101 | 122 | 3.5 | 7.8 | 0.00 | 0.00 | 0.00 | 40 | 1012.2 |
| 20260830214103 | 101 | 245 | 2.6 | 8.7 | 0.00 | 0.00 | 0.00 | 42 | 1012.1 |
| 20260830213830 | 101 | 113 | 4.3 | 8.7 | 0.00 | 0.00 | 0.00 | 41 | 1012.1 |
| 20260830213105 | 102 | 236 | 3.5 | 9.6 | 0.00 | 0.00 | 0.00 | 41 | 1012.2 |
| 20260830213056 | 101 | 120 | 4.3 | 11.3 | 0.00 | 0.00 | 0.00 | 41 | 1012.3 |
| 20260830212604 | 102 | 194 | 3.5 | 12.2 | 0.00 | 0.00 | 0.00 | 41 | 1012.1 |
| 20260830212105 | 102 | 8 | 1.7 | 12.2 | 0.00 | 0.00 | 0.00 | 42 | 1012.4 |
| 20260830211559 | 101 | 222 | 6.1 | 10.4 | 0.00 | 0.00 | 0.00 | 43 | 1012.3 |
| 20260830211555 | 101 | 257 | 5.2 | 10.4 | 0.00 | 0.00 | 0.00 | 43 | 1012.5 |
| 20260830211055 | 101 | 234 | 4.3 | 9.6 | 0.00 | 0.00 | 0.00 | 43 | 1012.5 |
| 20260830210815 | 101 | 129 | 5.2 | 10.4 | 0.00 | 0.00 | 0.00 | 43 | 1012.6 |
| 20260830210107 | 101 | 342 | 3.5 | 10.4 | 0.00 | 0.00 | 0.00 | 43 | 1012.7 |
| 20260830210045 | 101 | 342 | 4.3 | 10.4 | 0.00 | 0.00 | 0.00 | 43 | 1012.6 |
| 20260830205541 | 101 | 300 | 2.6 | 5.2 | 0.00 | 0.00 | 0.00 | 44 | 1012.7 |
| 20260830205036 | 101 | 359 | 2.6 | 7.0 | 0.00 | 0.00 | 0.00 | 40 | 1012.8 |
| 20260830204756 | 102 | 110 | 1.7 | 7.0 | 0.00 | 0.00 | 0.00 | 40 | 1012.9 |
| 20260830204618 | 102 | 293 | 1.7 | 7.8 | 0.00 | 0.00 | 0.00 | 40 | 1013.1 |